K6MLE Weather Reports


time (UTC)temp
F
wind
direction
speed
knots
gust
knots
rain 1hr
in
rain 24hr
in
rain mn
in
humidity
%
barometer
mb
20260506135017 52 0.0 0.0 0.00 0.00 0.00 96 1019.5
20260506134017 51 0.0 0.0 0.00 0.00 0.00 95 1019.4
20260506133016 51 0.0 0.0 0.00 0.00 0.00 95 1019.3
20260506132016 51 0.0 0.0 0.00 0.00 0.00 95 1019.3
20260506131016 51 0.0 0.0 0.00 0.00 0.00 95 1019.3
20260506130016 51 0.0 0.0 0.00 0.00 0.00 95 1019.3
20260506125016 51 0.0 0.0 0.00 0.00 0.00 95 1019.3
20260506124021 51 0.0 0.0 0.00 0.00 0.00 95 1019.2
20260506123047 51 0.0 0.0 0.00 0.00 0.00 95 1018.9
20260506122016 51 0.0 0.0 0.00 0.00 0.00 95 1018.9
20260506121036 51 0.0 0.0 0.00 0.00 0.00 95 1018.9
20260506120016 51 0.0 0.0 0.00 0.00 0.00 95 1018.8
20260506115036 51 0.0 0.0 0.00 0.00 0.00 95 1018.8
20260506114016 51 0.0 0.0 0.00 0.00 0.00 95 1018.7
20260506113036 51 0.0 0.0 0.00 0.00 0.00 95 1018.5
20260506112017 51 0.0 0.0 0.00 0.00 0.00 95 1018.5
20260506111016 51 0.0 0.0 0.00 0.00 0.00 95 1018.5
20260506110016 51 0.0 0.0 0.00 0.00 0.00 95 1018.6
20260506105016 51 0.0 0.0 0.00 0.00 0.00 95 1018.6
20260506104016 51 0.0 0.0 0.00 0.00 0.00 95 1018.5
20260506103057 51 0.0 0.0 0.00 0.00 0.00 95 1018.4
20260506102016 51 0.0 0.0 0.00 0.00 0.00 95 1018.4
20260506101016 51 0.0 0.0 0.00 0.00 0.00 95 1018.4
20260506100016 51 0.0 0.0 0.00 0.00 0.00 95 1018.3
20260506095016 51 0.0 0.0 0.00 0.00 0.00 95 1018.3
20260506094016 51 0.0 0.0 0.00 0.00 0.00 95 1018.3
20260506093017 51 0.0 0.0 0.00 0.00 0.00 95 1018.2
20260506092016 51 0.0 0.0 0.00 0.01 0.00 95 1018.2
20260506091016 52 0.0 0.0 0.00 0.01 0.00 95 1018.3
20260506090016 52 0.0 0.0 0.00 0.02 0.00 95 1018.3
20260506085026 52 0.0 0.0 0.00 0.02 0.00 95 1018.3
20260506084036 52 0.0 0.0 0.00 0.03 0.00 95 1018.3
20260506083026 52 0.0 0.0 0.00 0.04 0.00 95 1018.2
20260506082016 52 0.0 0.0 0.00 0.04 0.00 95 1018.2
20260506081016 52 0.0 0.0 0.00 0.04 0.00 95 1018.3
20260506073016 52 0.0 0.0 0.00 0.04 0.00 95 1018.2
20260506072021 52 0.0 0.0 0.00 0.04 0.00 95 1018.1
20260506071015 52 0.0 0.0 0.00 0.04 0.00 95 1018.1
20260506062016 52 0.0 0.0 0.00 0.05 0.04 94 1017.7
20260506061026 52 0.0 0.0 0.00 0.05 0.04 94 1017.6
20260506060116 52 0.0 0.0 0.00 0.06 0.04 94 1017.5
20260506051016 52 0.0 0.0 0.00 0.08 0.04 94 1016.9
20260506045016 52 0.0 0.0 0.00 0.09 0.04 94 1016.9
20260506044016 52 0.0 0.0 0.00 0.09 0.04 94 1016.9
20260506043016 52 0.0 0.0 0.00 0.09 0.04 93 1016.7
20260506042016 52 0.0 0.0 0.00 0.09 0.04 93 1016.7
20260506041016 52 0.0 0.0 0.00 0.10 0.04 93 1016.5
20260506040015 52 0.0 0.0 0.00 0.11 0.04 93 1016.3
20260506035036 52 0.0 0.0 0.00 0.12 0.04 93 1016.3
20260506034056 52 0.0 0.0 0.00 0.13 0.04 93 1016.2
20260506033016 52 0.0 0.0 0.00 0.15 0.04 93 1016.0
20260506032016 53 0.0 0.0 0.00 0.17 0.04 92 1015.8
20260506031016 53 0.0 0.0 0.00 0.18 0.04 92 1015.7
20260506030016 53 0.0 0.0 0.00 0.19 0.04 92 1015.5
20260506025016 53 0.0 0.0 0.00 0.20 0.04 92 1015.3
20260506024016 53 0.0 0.0 0.00 0.22 0.04 92 1015.4
20260506023015 53 0.0 0.0 0.00 0.23 0.04 92 1015.4
20260506022016 53 0.0 0.0 0.00 0.25 0.04 91 1015.2
20260506021016 53 0.0 0.0 0.00 0.26 0.04 91 1015.1
20260506020016 53 0.0 0.0 0.00 0.28 0.04 91 1015.2
20260506015036 53 0.0 0.0 0.00 0.29 0.04 91 1015.3
20260506014016 53 0.0 0.0 0.00 0.30 0.04 91 1015.3
20260506013015 53 0.0 0.0 0.00 0.31 0.04 91 1015.4
20260506012016 53 0.0 0.0 0.00 0.34 0.04 91 1015.4
20260506011016 53 0.0 0.0 0.00 0.36 0.04 91 1015.4
20260506010016 53 0.0 0.0 0.00 0.36 0.04 91 1015.2
20260506005016 53 0.0 0.0 0.00 0.36 0.04 91 1015.0
20260506004015 53 0.0 0.0 0.00 0.37 0.04 92 1014.9
20260506003018 53 0.0 0.0 0.00 0.37 0.04 92 1014.9
20260506002017 52 0.0 0.0 0.00 0.38 0.04 92 1014.7
20260506001017 52 0.0 0.0 0.00 0.39 0.04 92 1014.7
20260506000024 52 0.0 0.0 0.00 0.41 0.04 92 1014.7
20260505235018 52 0.0 0.0 0.00 0.43 0.04 92 1014.7
20260505234017 52 0.0 0.0 0.00 0.45 0.04 92 1014.6
20260505233017 52 0.0 0.0 0.00 0.46 0.04 92 1014.7
20260505232017 52 0.0 0.0 0.00 0.47 0.04 92 1014.7
20260505231017 52 0.0 0.0 0.00 0.48 0.04 92 1014.7
20260505230017 52 0.0 0.0 0.00 0.49 0.04 91 1014.7
20260505225024 53 0.0 0.0 0.00 0.51 0.04 91 1014.8
20260505224017 53 0.0 0.0 0.00 0.52 0.04 90 1014.8
20260505223017 53 0.0 0.0 0.00 0.53 0.04 88 1014.8
20260505222017 53 0.0 0.0 0.00 0.54 0.04 88 1015.0
20260505221018 53 0.0 0.0 0.00 0.55 0.04 88 1015.0
20260505220017 53 0.0 0.0 0.00 0.55 0.04 88 1015.0
20260505215017 53 0.0 0.0 0.00 0.55 0.04 88 1015.0
20260505214017 53 0.0 0.0 0.00 0.56 0.04 88 1015.0
20260505213017 53 0.0 0.0 0.00 0.57 0.04 88 1015.0
20260505212017 53 0.0 0.0 0.00 0.57 0.04 88 1015.1
20260505211017 53 0.0 0.0 0.00 0.58 0.04 88 1015.0
20260505210137 53 0.0 0.0 0.00 0.59 0.04 89 1014.9
20260505205018 53 0.0 0.0 0.00 0.59 0.04 88 1014.9
20260505204017 53 0.0 0.0 0.00 0.59 0.04 89 1015.0
20260505203017 53 0.0 0.0 0.00 0.59 0.04 90 1014.7
20260505202017 52 0.0 0.0 0.00 0.59 0.04 90 1014.7
20260505201017 52 0.0 0.0 0.00 0.60 0.04 91 1014.7
20260505200017 52 0.0 0.0 0.00 0.60 0.04 90 1014.7
20260505195017 52 0.0 0.0 0.00 0.61 0.04 90 1014.8
20260505194037 52 0.0 0.0 0.00 0.61 0.04 90 1014.8
20260505193017 52 0.0 0.0 0.00 0.62 0.04 90 1014.8
20260505192017 52 0.0 0.0 0.00 0.64 0.04 91 1014.8
20260505191017 52 0.0 0.0 0.00 0.67 0.04 91 1014.7
20260505190024 52 0.0 0.0 0.00 0.68 0.04 91 1014.7
20260505185017 52 0.0 0.0 0.00 0.69 0.04 90 1014.6
20260505184017 52 0.0 0.0 0.00 0.70 0.04 91 1014.6
20260505183017 52 0.0 0.0 0.00 0.70 0.04 90 1014.5
20260505182037 52 0.0 0.0 0.00 0.70 0.04 90 1014.5
20260505181022 52 0.0 0.0 0.00 0.70 0.04 90 1014.5
20260505180017 52 0.0 0.0 0.00 0.70 0.04 89 1014.4
20260505175017 53 0.0 0.0 0.00 0.70 0.04 90 1014.5
20260505174017 53 0.0 0.0 0.00 0.70 0.04 89 1014.4
20260505173024 52 0.0 0.0 0.00 0.70 0.04 90 1014.1
20260505172017 52 0.0 0.0 0.00 0.70 0.04 92 1014.1
20260505171022 51 0.0 0.0 0.00 0.70 0.04 92 1014.0
20260505170017 51 0.0 0.0 0.00 0.71 0.04 92 1014.1
20260505165017 51 0.0 0.0 0.00 0.71 0.04 93 1014.1
20260505164017 51 0.0 0.0 0.00 0.72 0.04 92 1014.1
20260505163037 51 0.0 0.0 0.00 0.72 0.04 92 1014.0
20260505162016 51 0.0 0.0 0.00 0.73 0.04 93 1014.1
20260505161017 51 0.0 0.0 0.00 0.77 0.04 93 1014.1
20260505153017 49 0.0 0.0 0.00 0.77 0.04 96 1013.8
20260505152024 49 0.0 0.0 0.00 0.77 0.04 96 1013.8
20260505151017 48 0.0 0.0 0.00 0.77 0.04 96 1013.5